TITAN 3C TRANSTAGE DEB, 1859

Orbit data source: Space-Track

TITAN 3C TRANSTAGE DEB, 1859 is space debris in LEO originally from a launch on Fri, 15 Oct 1965 UTC launched from the Air Force Eastern Test Range (AFETR). Debris objects in space refer to the collection of defunct objects orbiting the Earth. Examples of debris include non-operational satellites, rocket bodies, and fragments generated from explosions, collisions, or faulty payload assembly.

Loading next visibility...
Identifier
1859, 1965-082ES
Orbit
LEO
Country
Flag of USUS
Related business
Manufacturer
Unknown
Mission
Spacecraft
Bus & Motor
Unknown
Mass
Unknown
Launch date (UTC)
1965-10-15 (60 years ago)
Launch vehicle
Unknown
Launch site
Air Force Eastern Test Range (AFETR)
Object type
Payload
Rocket body
Debris
Shape & HBR
Unknown shape, 0.3 m
Radar Cross Section
Medium (>0.1 m² and <1 m²)

Expand to show TLE details & history
Last TLE update: 16 hours ago

TLE from 16 hours ago
0 TITAN 3C TRANSTAGE DEB
1  1859U 65082ES  25310.47719094  .00001262  00000-0  31040-3 0  9998
2  1859  32.1278  15.4636 0067037 201.8829 157.8942 14.48826426154748
Epoch: 2025-11-06T11:27Z
TLE epoch observation values (Epoch: 2025-11-06T11:27:09.297Z)
Latitude
-0.00002°
Longitude
157.73988°
Altitude
772.321 km
Speed
7.447 km/s
True Right ascension
01h 01m 51s
True Declination
0° 00' 00"
Sunlit
Object was in full shadow at epoch
Visualization orbit readout
Latitude
Unknown
Longitude
Unknown
Altitude
Unknown
Speed
Unknown
Apparent Right ascension
Unknown
Apparent Declination
Unknown
Sunlit
N/A
Visualization observer readout
Local Sidereal Time
23:03:42
Azimuth
Unknown
Elevation
Unknown
Doppler factor
Unknown
Orbital elements
Apogee altitude
780.729 km
Perigee altitude
685.386 km
Semi-major axis
7,111.195 km
Eccentricity
0.0067
Inclination
32.1278°
RAAN
15.4636°
Arg. of periapsis
201.8829°
True anomaly
158.18105°
Mean anomaly
157.8942°
Eccentric anomaly
158.03785°
Mean motion
3.61934 °/min
Orbital period
99.47 mins
BSTAR
0.0003104

Documentation

Showing up to 5 results
|